Year,Month,Day,Hour,Minute,Value (Times are PST for temperature in C)
2017,11,22,00,00,11.20
2017,11,22,00,01,11.20
2017,11,22,00,02,11.20
2017,11,22,00,03,11.10
2017,11,22,00,04,11.10
2017,11,22,00,05,11.10
2017,11,22,00,06,11.10
2017,11,22,00,07,11.10
2017,11,22,00,08,11.10
2017,11,22,00,09,11.10
2017,11,22,00,10,11.10
2017,11,22,00,11,11.10
2017,11,22,00,12,11.10
2017,11,22,00,13,11.10
2017,11,22,00,14,11.20
2017,11,22,00,15,11.10
2017,11,22,00,16,11.10
2017,11,22,00,17,11.10
2017,11,22,00,18,11.10
2017,11,22,00,19,11.10
2017,11,22,00,20,11.10
2017,11,22,00,21,11.10
2017,11,22,00,22,11.10
2017,11,22,00,23,11.10
2017,11,22,00,24,11.10
2017,11,22,00,25,11.10
2017,11,22,00,26,11.10
2017,11,22,00,27,11.10
2017,11,22,00,28,11.10
2017,11,22,00,29,11.10
2017,11,22,00,30,11.10
2017,11,22,00,31,11.00
2017,11,22,00,32,11.00
2017,11,22,00,33,11.00
2017,11,22,00,34,11.00
2017,11,22,00,35,11.00
2017,11,22,00,36,11.00
2017,11,22,00,37,11.00
2017,11,22,00,38,11.00
2017,11,22,00,39,10.90
2017,11,22,00,40,10.90
2017,11,22,00,41,10.90
2017,11,22,00,42,10.90
2017,11,22,00,43,10.90
2017,11,22,00,44,10.90
2017,11,22,00,45,10.90
2017,11,22,00,46,10.90
2017,11,22,00,47,10.90
2017,11,22,00,48,10.90
2017,11,22,00,49,10.90
2017,11,22,00,50,10.90
2017,11,22,00,51,10.90
2017,11,22,09,04,13.00
2017,11,22,09,05,13.10
2017,11,22,09,06,13.10
2017,11,22,09,07,13.10
2017,11,22,09,08,13.10
2017,11,22,09,09,13.10
2017,11,22,09,10,13.10
2017,11,22,09,11,13.10
2017,11,22,09,12,13.10
2017,11,22,09,13,13.10
2017,11,22,09,14,13.10
2017,11,22,09,15,13.10
2017,11,22,09,16,13.20
2017,11,22,09,17,13.20
2017,11,22,09,18,13.20
2017,11,22,09,19,13.20
2017,11,22,09,20,13.20
2017,11,22,09,21,13.20
2017,11,22,09,22,13.30
2017,11,22,09,23,13.30
2017,11,22,09,24,13.30
2017,11,22,09,25,13.30
2017,11,22,09,26,13.30
2017,11,22,09,27,13.40
2017,11,22,09,28,13.40
2017,11,22,09,29,13.40
2017,11,22,09,30,13.40
2017,11,22,09,31,13.40
2017,11,22,09,32,13.50
2017,11,22,09,33,13.50
2017,11,22,09,34,13.50
2017,11,22,09,35,13.50
2017,11,22,09,36,13.60
2017,11,22,09,37,13.60
2017,11,22,09,38,13.60
2017,11,22,09,39,13.60
2017,11,22,09,40,13.60
2017,11,22,09,41,13.60
2017,11,22,09,42,13.60
2017,11,22,09,43,13.60
2017,11,22,09,44,13.60
2017,11,22,09,45,13.60
2017,11,22,09,46,13.60
2017,11,22,09,47,13.60
2017,11,22,09,48,13.60
2017,11,22,09,49,13.60
2017,11,22,09,50,13.60
2017,11,22,09,51,13.60
2017,11,22,09,52,13.60
2017,11,22,09,53,13.60
2017,11,22,09,54,13.60
2017,11,22,09,55,13.70
2017,11,22,09,56,13.70
2017,11,22,09,57,13.70
2017,11,22,09,58,13.70
2017,11,22,09,59,13.70
2017,11,22,10,00,13.70
2017,11,22,10,01,13.70
2017,11,22,10,02,13.70
2017,11,22,10,03,13.70
2017,11,22,10,04,13.70
2017,11,22,10,05,13.70
2017,11,22,10,06,13.70
2017,11,22,10,07,13.70
2017,11,22,10,08,13.70
2017,11,22,10,09,13.70
2017,11,22,10,10,13.70
2017,11,22,10,11,13.70
2017,11,22,10,12,13.70
2017,11,22,10,13,13.70
2017,11,22,10,14,13.70
2017,11,22,10,15,13.70
2017,11,22,10,16,13.70
2017,11,22,10,17,13.60
2017,11,22,10,18,13.60
2017,11,22,10,19,13.70
2017,11,22,10,20,13.70
2017,11,22,10,21,13.70
2017,11,22,10,22,13.70
2017,11,22,10,23,13.70
2017,11,22,10,24,13.70
2017,11,22,10,25,13.70
2017,11,22,10,26,13.70
2017,11,22,10,27,13.70
2017,11,22,10,28,13.60
2017,11,22,10,29,13.60
2017,11,22,10,30,13.60
2017,11,22,10,31,13.60
2017,11,22,10,32,13.60
2017,11,22,10,33,13.60
2017,11,22,10,34,13.60
2017,11,22,10,35,13.60
2017,11,22,10,36,13.60
2017,11,22,10,37,13.60
2017,11,22,10,38,13.60
2017,11,22,10,39,13.60
2017,11,22,10,40,13.60
2017,11,22,10,41,13.50
2017,11,22,10,42,13.50
2017,11,22,10,43,13.50
2017,11,22,10,44,13.50
2017,11,22,10,45,13.50
2017,11,22,10,46,13.50
2017,11,22,10,47,13.50
2017,11,22,10,48,13.50
2017,11,22,10,49,13.40
2017,11,22,10,50,13.50
2017,11,22,10,51,13.50
2017,11,22,10,52,13.50
2017,11,22,10,53,13.40
2017,11,22,10,54,13.40
2017,11,22,10,55,13.40
2017,11,22,10,56,13.40
2017,11,22,10,57,13.40
2017,11,22,10,58,13.40
2017,11,22,10,59,13.40
2017,11,22,11,00,13.40
2017,11,22,11,01,13.40
2017,11,22,11,02,13.40
2017,11,22,11,03,13.40
2017,11,22,11,04,13.40
2017,11,22,11,05,13.40
2017,11,22,11,06,13.30
2017,11,22,11,07,13.30
2017,11,22,11,08,13.30
2017,11,22,11,09,13.30
2017,11,22,11,10,13.30
2017,11,22,11,11,13.30
2017,11,22,11,12,13.30
2017,11,22,11,13,13.30
2017,11,22,11,14,13.30
2017,11,22,11,15,13.30
2017,11,22,11,16,13.30
2017,11,22,11,17,13.20
2017,11,22,11,18,13.20
2017,11,22,11,19,13.20
2017,11,22,11,20,13.20
2017,11,22,11,21,13.20
2017,11,22,11,22,13.20
2017,11,22,11,23,13.20
2017,11,22,11,24,13.20
2017,11,22,11,25,13.20
2017,11,22,11,26,13.20
2017,11,22,11,27,13.20
2017,11,22,11,28,13.20
2017,11,22,11,29,13.20
2017,11,22,11,30,13.20
2017,11,22,11,31,13.20
2017,11,22,11,32,13.20
2017,11,22,11,33,13.20
2017,11,22,11,34,13.20
2017,11,22,11,35,13.20
2017,11,22,11,36,13.10
2017,11,22,11,37,13.10
2017,11,22,11,38,13.20
2017,11,22,11,39,13.20
2017,11,22,11,40,13.20
2017,11,22,11,41,13.20
2017,11,22,11,42,13.20
2017,11,22,11,43,13.20
2017,11,22,11,44,13.20
2017,11,22,11,45,13.20
2017,11,22,11,46,13.20
2017,11,22,11,47,13.30
2017,11,22,11,48,13.30
2017,11,22,11,49,13.30
2017,11,22,11,50,13.30
2017,11,22,11,51,13.30
2017,11,22,11,52,13.40
2017,11,22,11,53,13.40
2017,11,22,11,54,13.40
2017,11,22,11,55,13.40
2017,11,22,11,56,13.40
2017,11,22,11,57,13.50
2017,11,22,11,58,13.50
2017,11,22,11,59,13.50
2017,11,22,12,00,13.50
2017,11,22,12,01,13.50
2017,11,22,12,02,13.50
2017,11,22,12,03,13.60
2017,11,22,12,04,13.60
2017,11,22,12,05,13.60
2017,11,22,12,06,13.60
2017,11,22,12,07,13.70
2017,11,22,12,08,13.70
2017,11,22,12,09,13.70
2017,11,22,12,10,13.70
2017,11,22,12,11,13.70
2017,11,22,12,12,13.70
2017,11,22,12,13,13.80
2017,11,22,12,14,13.80
2017,11,22,12,15,13.80
2017,11,22,12,16,13.80
2017,11,22,12,17,13.80
2017,11,22,12,18,13.80
2017,11,22,12,19,13.80
2017,11,22,12,20,13.80
2017,11,22,12,21,13.80
2017,11,22,12,22,13.80
2017,11,22,12,23,13.80
2017,11,22,12,24,13.80
2017,11,22,12,25,13.80
2017,11,22,12,26,13.80
2017,11,22,12,27,13.80
2017,11,22,12,28,13.80
2017,11,22,12,29,13.70
2017,11,22,12,30,13.70
2017,11,22,12,31,13.70
2017,11,22,12,32,13.70
2017,11,22,12,33,13.70
2017,11,22,12,34,13.70
2017,11,22,12,35,13.70
2017,11,22,12,36,13.80
2017,11,22,12,37,13.80
2017,11,22,12,38,13.80
2017,11,22,12,39,13.80
2017,11,22,12,40,13.70
2017,11,22,12,41,13.70
2017,11,22,12,42,13.70
2017,11,22,12,43,13.70
2017,11,22,12,44,13.70
2017,11,22,12,45,13.70
2017,11,22,12,46,13.70
2017,11,22,12,47,13.70
2017,11,22,12,48,13.70
2017,11,22,12,49,13.70
2017,11,22,12,50,13.70
2017,11,22,12,51,13.70
2017,11,22,12,52,13.70
2017,11,22,12,53,13.70
2017,11,22,12,54,13.70
2017,11,22,12,55,13.70
2017,11,22,12,56,13.60
2017,11,22,12,57,13.60
2017,11,22,12,58,13.60
2017,11,22,12,59,13.60
2017,11,22,13,00,13.60
2017,11,22,13,01,13.60
2017,11,22,13,02,13.60
2017,11,22,13,03,13.70
2017,11,22,13,04,13.70
2017,11,22,13,05,13.70
2017,11,22,13,06,13.70
2017,11,22,13,07,13.70
2017,11,22,13,08,13.70
2017,11,22,13,09,13.70
2017,11,22,13,10,13.70
2017,11,22,13,11,13.80
2017,11,22,13,12,13.80
2017,11,22,13,13,13.80
2017,11,22,13,14,13.80
2017,11,22,13,15,13.80
2017,11,22,13,16,13.80
2017,11,22,13,17,13.80
2017,11,22,13,18,13.80
2017,11,22,13,19,13.80
2017,11,22,13,20,13.80
2017,11,22,13,21,13.80
2017,11,22,13,22,13.80
2017,11,22,13,23,13.80
2017,11,22,13,24,13.80
2017,11,22,13,25,13.80
2017,11,22,13,26,13.80
2017,11,22,13,27,13.80
2017,11,22,13,28,13.90
2017,11,22,13,29,13.90
2017,11,22,13,30,13.90
2017,11,22,13,31,13.90
2017,11,22,13,32,13.90
2017,11,22,13,33,13.90
2017,11,22,13,34,13.90
2017,11,22,13,35,13.90
2017,11,22,13,36,13.90
2017,11,22,13,37,14.00
2017,11,22,13,38,14.00
2017,11,22,13,39,14.00
2017,11,22,13,40,14.00
2017,11,22,13,41,14.10
2017,11,22,13,42,14.10
2017,11,22,13,43,14.10
2017,11,22,13,44,14.20
2017,11,22,13,45,14.20
2017,11,22,13,46,14.20
2017,11,22,13,47,14.20
2017,11,22,13,48,14.30
2017,11,22,13,49,14.30
2017,11,22,13,50,14.30
2017,11,22,13,51,14.30
2017,11,22,13,52,14.30
2017,11,22,13,53,14.30
2017,11,22,13,54,14.30
2017,11,22,13,55,14.40
2017,11,22,13,56,14.40
2017,11,22,13,57,14.40
2017,11,22,13,58,14.40
2017,11,22,13,59,14.40
2017,11,22,14,00,14.40
2017,11,22,14,01,14.40
2017,11,22,14,02,14.30
2017,11,22,14,03,14.40
2017,11,22,14,04,14.40
2017,11,22,14,05,14.50
2017,11,22,14,06,14.50
2017,11,22,14,07,14.60
2017,11,22,14,08,14.60
2017,11,22,14,09,14.60
2017,11,22,14,10,14.60
2017,11,22,14,11,14.60
2017,11,22,14,12,14.60
2017,11,22,14,13,14.60
2017,11,22,14,14,14.50
2017,11,22,14,15,14.50
2017,11,22,14,16,14.40
2017,11,22,14,17,14.40
2017,11,22,14,18,14.40
2017,11,22,14,19,14.30
2017,11,22,14,20,14.30
2017,11,22,14,21,14.30
2017,11,22,14,22,14.30
2017,11,22,14,23,14.30
2017,11,22,14,24,14.30
2017,11,22,14,25,14.30
2017,11,22,14,26,14.30
2017,11,22,14,27,14.20
2017,11,22,14,28,14.10
2017,11,22,14,29,14.10
2017,11,22,14,30,14.10
2017,11,22,14,31,14.10
2017,11,22,14,32,14.10
2017,11,22,14,33,14.10
2017,11,22,14,34,14.10
2017,11,22,14,35,14.10
2017,11,22,14,36,14.10
2017,11,22,14,37,14.10
2017,11,22,14,38,14.10
2017,11,22,14,39,14.10
2017,11,22,14,40,14.10
2017,11,22,14,41,14.20
2017,11,22,14,42,14.20
2017,11,22,14,43,14.20
2017,11,22,14,44,14.10
2017,11,22,14,45,14.10
2017,11,22,14,46,14.10
2017,11,22,14,47,14.10
2017,11,22,14,48,14.10
2017,11,22,14,49,14.10
2017,11,22,14,50,14.10
2017,11,22,14,51,14.10
2017,11,22,14,52,14.10
2017,11,22,14,53,14.10
2017,11,22,14,54,14.00
2017,11,22,14,55,14.00
2017,11,22,14,56,14.00
2017,11,22,14,57,14.00
2017,11,22,14,58,13.90
2017,11,22,14,59,13.90
2017,11,22,15,00,13.90
2017,11,22,15,01,13.90
2017,11,22,15,02,13.90
2017,11,22,15,03,13.90
2017,11,22,15,04,13.90
2017,11,22,15,05,13.80
2017,11,22,15,06,13.80
2017,11,22,15,07,13.80
2017,11,22,15,08,13.80
2017,11,22,15,09,13.70
2017,11,22,15,10,13.70
2017,11,22,15,11,13.70
2017,11,22,15,12,13.70
2017,11,22,15,13,13.70
2017,11,22,15,14,13.70
2017,11,22,15,15,13.70
2017,11,22,15,16,13.70
2017,11,22,15,17,13.70
2017,11,22,15,18,13.70
2017,11,22,15,19,13.70
2017,11,22,15,20,13.70
2017,11,22,15,21,13.70
2017,11,22,15,22,13.70
2017,11,22,15,23,13.70
2017,11,22,15,24,13.70
2017,11,22,15,25,13.70
2017,11,22,15,26,13.70
2017,11,22,15,27,13.60
2017,11,22,15,28,13.60
2017,11,22,15,29,13.60
2017,11,22,15,30,13.60
2017,11,22,15,31,13.50
2017,11,22,15,32,13.50
2017,11,22,15,33,13.50
2017,11,22,15,34,13.40
2017,11,22,15,35,13.50
2017,11,22,15,36,13.40
2017,11,22,15,37,13.40
2017,11,22,15,38,13.40
2017,11,22,15,39,13.40
2017,11,22,15,40,13.40
2017,11,22,15,41,13.40
2017,11,22,15,42,13.40
2017,11,22,15,43,13.40
2017,11,22,15,44,13.40
2017,11,22,15,45,13.40
2017,11,22,15,46,13.40
2017,11,22,15,47,13.40
2017,11,22,15,48,13.40
2017,11,22,15,49,13.50
2017,11,22,15,50,13.50
2017,11,22,15,51,13.50
2017,11,22,15,52,13.50
2017,11,22,15,53,13.50
2017,11,22,15,54,13.50
2017,11,22,15,55,13.40
2017,11,22,15,56,13.40
2017,11,22,15,57,13.40
2017,11,22,15,58,13.40
2017,11,22,15,59,13.50
2017,11,22,16,00,13.50
2017,11,22,16,01,13.50
2017,11,22,16,02,13.50
2017,11,22,16,03,13.50
2017,11,22,16,04,13.50
2017,11,22,16,05,13.50
2017,11,22,16,06,13.50
2017,11,22,16,07,13.50
2017,11,22,16,08,13.50
2017,11,22,16,09,13.40
2017,11,22,16,10,13.40
2017,11,22,16,11,13.40
2017,11,22,16,12,13.40
2017,11,22,16,13,13.40
2017,11,22,16,14,13.40
2017,11,22,16,15,13.40
2017,11,22,16,16,13.30
2017,11,22,16,17,13.30
2017,11,22,16,18,13.30
2017,11,22,16,19,13.30
2017,11,22,16,20,13.30
2017,11,22,16,21,13.30
2017,11,22,16,22,13.30
2017,11,22,16,23,13.30
2017,11,22,16,24,13.30
2017,11,22,16,25,13.30
2017,11,22,16,26,13.30
2017,11,22,16,27,13.30
2017,11,22,16,28,13.30
2017,11,22,16,29,13.30
2017,11,22,16,30,13.30
2017,11,22,16,31,13.20
2017,11,22,16,32,13.20
2017,11,22,16,33,13.20
2017,11,22,16,34,13.20
2017,11,22,16,35,13.20
2017,11,22,16,36,13.20
2017,11,22,16,37,13.20
2017,11,22,16,38,13.20
2017,11,22,16,39,13.20
2017,11,22,16,40,13.20
2017,11,22,16,41,13.20
2017,11,22,16,42,13.20
2017,11,22,16,43,13.20
2017,11,22,16,44,13.20
2017,11,22,16,45,13.20
2017,11,22,16,46,13.20
2017,11,22,16,47,13.10
2017,11,22,16,48,13.10
2017,11,22,16,49,13.20
2017,11,22,16,50,13.20
2017,11,22,16,51,13.20
2017,11,22,16,52,13.20
2017,11,22,16,53,13.20
2017,11,22,16,54,13.20
2017,11,22,16,55,13.20
2017,11,22,16,56,13.20
2017,11,22,16,57,13.20
2017,11,22,16,58,13.20
2017,11,22,16,59,13.20
2017,11,22,17,00,13.20
2017,11,22,17,01,13.20
2017,11,22,17,02,13.20
2017,11,22,17,03,13.20
2017,11,22,17,04,13.20
2017,11,22,17,05,13.20
2017,11,22,17,06,13.10
2017,11,22,17,07,13.10
2017,11,22,17,08,13.10
2017,11,22,17,09,13.10
2017,11,22,17,10,13.00
2017,11,22,17,11,13.00
2017,11,22,17,12,12.90
2017,11,22,17,13,12.90
2017,11,22,17,14,12.90
2017,11,22,17,15,12.90
2017,11,22,17,16,12.80
2017,11,22,17,17,12.80
2017,11,22,17,18,12.80
2017,11,22,17,19,12.80
2017,11,22,17,20,12.80
2017,11,22,17,21,12.80
2017,11,22,17,22,12.80
2017,11,22,17,23,12.80
2017,11,22,17,24,12.80
2017,11,22,17,25,12.80
2017,11,22,17,26,12.80
2017,11,22,17,27,12.80
2017,11,22,17,28,12.80
2017,11,22,17,29,12.80
2017,11,22,17,30,12.80
2017,11,22,17,31,12.80
2017,11,22,17,32,12.80
2017,11,22,17,33,12.80
2017,11,22,17,34,12.80
2017,11,22,17,35,12.80
2017,11,22,17,36,12.80
2017,11,22,17,37,12.70
2017,11,22,17,38,12.70
2017,11,22,17,39,12.60
2017,11,22,17,40,12.60
2017,11,22,17,41,12.50
2017,11,22,17,42,12.50
2017,11,22,17,43,12.50
2017,11,22,17,44,12.50
2017,11,22,17,45,12.50
2017,11,22,17,46,12.50
2017,11,22,17,47,12.50
2017,11,22,17,48,12.50
2017,11,22,17,49,12.50
2017,11,22,17,50,12.60
2017,11,22,17,51,12.60
2017,11,22,17,52,12.60
2017,11,22,17,53,12.50
2017,11,22,17,54,12.50
2017,11,22,17,55,12.40
2017,11,22,17,56,12.40
2017,11,22,17,57,12.30
2017,11,22,17,58,12.30
2017,11,22,17,59,12.30
2017,11,22,18,00,12.30
2017,11,22,18,01,12.20
2017,11,22,18,02,12.20
2017,11,22,18,03,12.20
2017,11,22,18,04,12.20
2017,11,22,18,05,12.20
2017,11,22,18,06,12.20
2017,11,22,18,07,12.20
2017,11,22,18,08,12.20
2017,11,22,18,09,12.20
2017,11,22,18,10,12.20
2017,11,22,18,11,12.20
2017,11,22,18,12,12.10
2017,11,22,18,13,12.20
2017,11,22,18,14,12.10
2017,11,22,18,15,12.20
2017,11,22,18,16,12.20
2017,11,22,18,17,12.20
2017,11,22,18,18,12.20
2017,11,22,18,19,12.20
2017,11,22,18,20,12.20
2017,11,22,18,21,12.20
2017,11,22,18,22,12.30
2017,11,22,18,23,12.30
2017,11,22,18,24,12.30
2017,11,22,18,25,12.30
2017,11,22,18,26,12.40
2017,11,22,18,27,12.40
2017,11,22,18,28,12.40
2017,11,22,18,29,12.50
2017,11,22,18,30,12.50
2017,11,22,18,31,12.50
2017,11,22,18,32,12.60
2017,11,22,18,33,12.60
2017,11,22,18,34,12.70
2017,11,22,18,35,12.70
2017,11,22,18,36,12.70
2017,11,22,18,37,12.70
2017,11,22,18,38,12.70
2017,11,22,18,39,12.70
2017,11,22,18,40,12.70
2017,11,22,18,41,12.70
2017,11,22,18,42,12.70
2017,11,22,18,43,12.70
2017,11,22,18,44,12.70
2017,11,22,18,45,12.80
2017,11,22,18,46,12.80
2017,11,22,18,47,12.80
2017,11,22,18,48,12.80
2017,11,22,18,49,12.80
2017,11,22,18,50,12.80
2017,11,22,18,51,12.80
2017,11,22,18,52,12.80
2017,11,22,18,53,12.90
2017,11,22,18,54,12.90
2017,11,22,18,55,13.00
2017,11,22,18,56,13.00
2017,11,22,18,57,13.10
2017,11,22,18,58,13.10
2017,11,22,18,59,13.10
2017,11,22,19,00,13.10
2017,11,22,19,01,13.10
2017,11,22,19,02,13.00
2017,11,22,19,03,13.00
2017,11,22,19,04,13.00
2017,11,22,19,05,13.00
2017,11,22,19,06,12.90
2017,11,22,19,07,12.90
2017,11,22,19,08,12.90
2017,11,22,19,09,12.90
2017,11,22,19,10,12.80
2017,11,22,19,11,12.80
2017,11,22,19,12,12.80
2017,11,22,19,13,12.70
2017,11,22,19,14,12.70
2017,11,22,19,15,12.70
2017,11,22,19,16,12.60
2017,11,22,19,17,12.60
2017,11,22,19,18,12.60
2017,11,22,19,19,12.60
2017,11,22,19,20,12.60
2017,11,22,19,21,12.60
2017,11,22,19,22,12.60
2017,11,22,19,23,12.60
2017,11,22,19,24,12.60
2017,11,22,19,25,12.60
2017,11,22,19,26,12.70
2017,11,22,19,27,12.70
2017,11,22,19,28,12.80
2017,11,22,19,29,12.80
2017,11,22,19,30,12.80
2017,11,22,19,31,12.80
2017,11,22,19,32,12.80
2017,11,22,19,33,12.80
2017,11,22,19,34,12.80
2017,11,22,19,35,12.90
2017,11,22,19,36,12.90
2017,11,22,19,37,12.90
2017,11,22,19,38,12.90
2017,11,22,19,39,12.90
2017,11,22,19,40,12.90
2017,11,22,19,41,12.90
2017,11,22,19,42,12.90
2017,11,22,19,43,12.90
2017,11,22,19,44,12.90
2017,11,22,19,45,13.00
2017,11,22,19,46,13.00
2017,11,22,19,47,13.00
2017,11,22,19,48,13.00
2017,11,22,19,49,13.00
2017,11,22,19,50,13.10
2017,11,22,19,51,13.10
2017,11,22,19,52,13.10
2017,11,22,19,53,13.10
2017,11,22,19,54,13.20
2017,11,22,19,55,13.30
2017,11,22,19,56,13.30
2017,11,22,19,57,13.30
2017,11,22,19,58,13.30
2017,11,22,19,59,13.40
2017,11,22,20,00,13.40
2017,11,22,20,01,13.50
2017,11,22,20,02,13.50
2017,11,22,20,03,13.60
2017,11,22,20,04,13.60
2017,11,22,20,05,13.70
2017,11,22,20,06,13.70
2017,11,22,20,07,13.80
2017,11,22,20,08,13.80
2017,11,22,20,09,13.80
2017,11,22,20,10,13.80
2017,11,22,20,11,13.80
2017,11,22,20,12,13.80
2017,11,22,20,13,13.90
2017,11,22,20,14,13.90
2017,11,22,20,15,13.90
2017,11,22,20,16,14.00
2017,11,22,20,17,14.10
2017,11,22,20,18,14.10
2017,11,22,20,19,14.10
2017,11,22,20,20,14.10
2017,11,22,20,21,14.10
2017,11,22,20,22,14.10
2017,11,22,20,23,14.10
2017,11,22,20,24,14.10
2017,11,22,20,25,14.10
2017,11,22,20,26,14.10
2017,11,22,20,27,14.10
2017,11,22,20,28,14.10
2017,11,22,20,29,14.20
2017,11,22,20,30,14.20
2017,11,22,20,31,14.20
2017,11,22,20,32,14.20
2017,11,22,20,33,14.20
2017,11,22,20,34,14.20
2017,11,22,20,35,14.20
2017,11,22,20,36,14.20
2017,11,22,20,37,14.10
2017,11,22,20,38,14.10
2017,11,22,20,39,14.10
2017,11,22,20,40,14.10
2017,11,22,20,41,14.10
2017,11,22,20,42,14.00
2017,11,22,20,43,14.00
2017,11,22,20,44,14.10
2017,11,22,20,45,14.10
2017,11,22,20,46,14.10
2017,11,22,20,47,14.10
2017,11,22,20,48,14.20
2017,11,22,20,49,14.20
2017,11,22,20,50,14.20
2017,11,22,20,51,14.20
2017,11,22,20,52,14.20
2017,11,22,20,53,14.20
2017,11,22,20,54,14.20
2017,11,22,20,55,14.30
2017,11,22,20,56,14.30
2017,11,22,20,57,14.30
2017,11,22,20,58,14.30
2017,11,22,20,59,14.30
2017,11,22,21,00,14.30
2017,11,22,21,01,14.30
2017,11,22,21,02,14.20
2017,11,22,21,03,14.20
2017,11,22,21,04,14.20
2017,11,22,21,05,14.20
2017,11,22,21,06,14.20
2017,11,22,21,07,14.20
2017,11,22,21,08,14.20
2017,11,22,21,09,14.20
2017,11,22,21,10,14.20
2017,11,22,21,11,14.20
2017,11,22,21,12,14.20
2017,11,22,21,13,14.20
2017,11,22,21,14,14.20
2017,11,22,21,15,14.20
2017,11,22,21,16,14.20
2017,11,22,21,17,14.20
2017,11,22,21,18,14.20
2017,11,22,21,19,14.20
2017,11,22,21,20,14.20
2017,11,22,21,21,14.20
2017,11,22,21,22,14.20
2017,11,22,21,23,14.20
2017,11,22,21,24,14.20
2017,11,22,21,25,14.20
2017,11,22,21,26,14.20
2017,11,22,21,27,14.10
2017,11,22,21,28,14.20
2017,11,22,21,29,14.20
2017,11,22,21,30,14.20
2017,11,22,21,31,14.20
2017,11,22,21,32,14.20
2017,11,22,21,33,14.30
2017,11,22,21,34,14.30
2017,11,22,21,35,14.30
2017,11,22,21,36,14.30
2017,11,22,21,37,14.30
2017,11,22,21,38,14.30
2017,11,22,21,39,14.30
2017,11,22,21,40,14.30
2017,11,22,21,41,14.30
2017,11,22,21,42,14.30
2017,11,22,21,43,14.30
2017,11,22,21,44,14.40
2017,11,22,21,45,14.40
2017,11,22,21,46,14.40
2017,11,22,21,47,14.40
2017,11,22,21,48,14.40
2017,11,22,21,49,14.40
2017,11,22,21,50,14.40
2017,11,22,21,51,14.40
2017,11,22,21,52,14.40
2017,11,22,21,53,14.30
2017,11,22,21,54,14.40
2017,11,22,21,55,14.40
2017,11,22,21,56,14.40
2017,11,22,21,57,14.40
2017,11,22,21,58,14.40
2017,11,22,21,59,14.50
2017,11,22,22,00,14.40
2017,11,22,22,01,14.40
2017,11,22,22,02,14.40
2017,11,22,22,03,14.40
2017,11,22,22,04,14.40
2017,11,22,22,05,14.50
2017,11,22,22,06,14.60
2017,11,22,22,07,14.60
2017,11,22,22,08,14.60
2017,11,22,22,09,14.60
2017,11,22,22,10,14.60
2017,11,22,22,11,14.60
2017,11,22,22,12,14.60
2017,11,22,22,13,14.60
2017,11,22,22,14,14.60
2017,11,22,22,15,14.50
2017,11,22,22,16,14.60
2017,11,22,22,17,14.60
2017,11,22,22,18,14.60
2017,11,22,22,19,14.60
2017,11,22,22,20,14.60
2017,11,22,22,21,14.60
2017,11,22,22,22,14.70
2017,11,22,22,23,14.80
2017,11,22,22,24,14.80
2017,11,22,22,25,14.90
2017,11,22,22,26,14.90
2017,11,22,22,27,14.90
2017,11,22,22,28,14.80
2017,11,22,22,29,14.80
2017,11,22,22,30,14.80
2017,11,22,22,31,14.80
2017,11,22,22,32,14.80
2017,11,22,22,33,14.80
2017,11,22,22,34,14.80
2017,11,22,22,35,14.80
2017,11,22,22,36,14.80
2017,11,22,22,37,14.80
2017,11,22,22,38,14.80
2017,11,22,22,39,14.80
2017,11,22,22,40,14.80
2017,11,22,22,41,14.70
2017,11,22,22,42,14.70
2017,11,22,22,43,14.80
2017,11,22,22,44,14.80
2017,11,22,22,45,14.90
2017,11,22,22,46,15.00
2017,11,22,22,47,15.00
2017,11,22,22,48,15.00
2017,11,22,22,49,15.00
2017,11,22,22,50,15.00
2017,11,22,22,51,15.00
2017,11,22,22,52,15.00
2017,11,22,22,53,15.00
2017,11,22,22,54,15.00
2017,11,22,22,55,15.00
2017,11,22,22,56,15.00
2017,11,22,22,57,15.00
2017,11,22,22,58,15.00
2017,11,22,22,59,15.00
2017,11,22,23,00,15.00
2017,11,22,23,01,15.00
2017,11,22,23,02,15.00
2017,11,22,23,03,15.00
2017,11,22,23,04,15.00
2017,11,22,23,05,14.90
2017,11,22,23,06,14.80
2017,11,22,23,07,14.80
2017,11,22,23,08,14.80
2017,11,22,23,09,14.80
2017,11,22,23,10,14.90
2017,11,22,23,11,14.90
2017,11,22,23,12,14.90
2017,11,22,23,13,14.90
2017,11,22,23,14,14.90
2017,11,22,23,15,14.90
2017,11,22,23,16,14.80
2017,11,22,23,17,14.70
2017,11,22,23,18,14.70
2017,11,22,23,19,14.70
2017,11,22,23,20,14.70
2017,11,22,23,21,14.70
2017,11,22,23,22,14.70
2017,11,22,23,23,14.60
2017,11,22,23,24,14.60
2017,11,22,23,25,14.60
2017,11,22,23,26,14.50
2017,11,22,23,27,14.50
2017,11,22,23,28,14.40
2017,11,22,23,29,14.30
2017,11,22,23,30,14.30
2017,11,22,23,31,14.20
2017,11,22,23,32,14.10
2017,11,22,23,33,14.20
2017,11,22,23,34,14.20
2017,11,22,23,35,14.30
2017,11,22,23,36,14.40
2017,11,22,23,37,14.40
2017,11,22,23,38,14.50
2017,11,22,23,39,14.50
2017,11,22,23,40,14.40
2017,11,22,23,41,14.50
2017,11,22,23,42,14.50
2017,11,22,23,43,14.50
2017,11,22,23,44,14.60
2017,11,22,23,45,14.60
2017,11,22,23,46,14.70
2017,11,22,23,47,14.70
2017,11,22,23,48,14.60
2017,11,22,23,49,14.60
2017,11,22,23,50,14.60
2017,11,22,23,51,14.50
2017,11,22,23,52,14.50
2017,11,22,23,53,14.40
2017,11,22,23,54,14.30
2017,11,22,23,55,14.20
2017,11,22,23,56,14.10
2017,11,22,23,57,14.00
2017,11,22,23,58,13.90
2017,11,22,23,59,13.90
